Regional Weather Roundup
Issued by NWS

Home | Current Version | Previous Version | Text Only | Print | Product List | Glossary Off
Versions: 1 2 3 4 5 6 7 8 9 10 11 12 13 14 15 16 17 18 19 20 21 22 23 24 25 26 27 28 29 30 31 32 33 34 35 36 37 38 39 40 41 42 43 44 45 46 47 48 49 50

000
ASUS43 KMKX 031121
RWRWI

WISCONSIN REGIONAL WEATHER ROUNDUP
NATIONAL WEATHER SERVICE MILWAUKEE/SULLIVAN WI
600 AM CDT FRI JUL 03 2015

NOTE: "FAIR" INDICATES FEW OR NO CLOUDS BELOW 12,000 FEET WITH NO
SIGNIFICANT WEATHER AND/OR OBSTRUCTIONS TO VISIBILITY.

WIZ001-002-006>008-014>016-023>028-031200-
NORTHWEST WISCONSIN

CITY           SKY/WX    TMP DP  RH WIND       PRES   REMARKS
SUPERIOR ARPT  CLOUDY    59  56  91 SW8       29.92S
ASHLAND        MOCLDY    61  56  83 SW8       29.93S
HAYWARD        PTCLDY    51  48  89 CALM      29.97S
SIREN          CLEAR     57  53  89 CALM      29.96S
CUMBERLAND     CLEAR     52  52 100 CALM      29.98S
RICE LAKE      CLEAR     53  52  95 CALM      29.99S
CHETEK         CLEAR     52  52 100 CALM      29.99R
LADYSMITH      CLEAR     53  51  94 CALM      30.00S
EAU CLAIRE     CLEAR     55  53  93 CALM      29.97F FOG
MENOMONIE      CLEAR     54  53  98 CALM      29.98F
NEW RICHMOND   CLEAR     53  53  99 CALM      29.98S
OSCEOLA        CLEAR     54  54 100 CALM      30.00R
$$

WIZ003>005-009-010-017-018-031200-
NORTH CENTRAL WISCONSIN

CITY           SKY/WX    TMP DP  RH WIND       PRES   REMARKS
MANITOWISH WTR PTCLDY    55  53  94 W3        29.98S
ARBOR VITAE    CLEAR     57  53  87 SW6       29.98S
WOODRUFF       CLEAR     57  53  87 SW6       29.98S
RHINELANDER    CLEAR     55  50  83 SW7       30.00S
EAGLE RIVER    CLEAR     52  50  93 SW5       29.98S
LAND O LAKES   PTCLDY    53  52  95 CALM      29.98S
PHILLIPS       CLEAR     53  50  90 S5        29.98S
TOMAHAWK       CLEAR     45  43  94 CALM      30.00S
MEDFORD        CLEAR     51  49  91 CALM      30.00S
MERRILL        CLEAR     45  45  98 CALM      30.01S
$$

WIZ029-030-035-036-043>047-031200-
CENTRAL WISCONSIN

CITY           SKY/WX    TMP DP  RH WIND       PRES   REMARKS
WAUSAU         CLEAR     51  49  92 VRB3      29.99F
MOSINEE        CLEAR     52  50  93 CALM      30.01F
MARSHFIELD     CLEAR     52  48  86 CALM      30.00F
STEVENS POINT  CLEAR     45  44  97 CALM      30.01F
WAUPACA        CLEAR     49  48  97 CALM      30.01S
WAUTOMA        PTCLDY    47  47 100 CALM      30.02S
WISC RAPIDS    CLEAR     48  46  93 CALM      30.01F
CAMP DOUGLAS   PTCLDY    45  45 100 SE1       30.00S
$$

WIZ011>013-019>022-031-037>040-048>050-031200-
NORTHEAST WISCONSIN

CITY           SKY/WX    TMP DP  RH WIND       PRES   REMARKS
ANTIGO         CLEAR     47  46  98 CALM      30.02R
SHAWANO        CLEAR     53  50  91 CALM      30.00S
OCONTO         CLEAR     46  46 100 CALM      29.99S
STURGEON BAY   CLEAR     54  43  66 CALM      30.01S
GREEN BAY      CLEAR     52  49  89 W3        30.00S
MANITOWOC      CLEAR     50  48  93 MISG      30.00F
APPLETON       CLEAR     54  48  82 W7        30.01S
CLINTONVILLE   CLEAR     50  46  87 CALM      30.00S
OSHKOSH        PTCLDY    53  46  77 CALM      30.00S
$$

WIZ032>034-041-042-053>061-031200-
SOUTHWEST WISCONSIN

CITY           SKY/WX    TMP DP  RH WIND       PRES   REMARKS
LA CROSSE      CLEAR     55  53  93 SE5       30.00S
SPARTA         CLEAR     43  42  97 CALM      30.02S
VIROQUA        CLEAR     53  52  97 CALM      30.02S
BOSCOBEL       FOG       55  54  96 CALM      30.02R VSB<1/4
PRAIRIE DU CHI FOG       53  52  95 E3        30.01R VSB 1
PLATTEVILLE    PTCLDY    51  50  95 NE3       30.00S
$$

WIZ056-057-062-063-064-067-068-031200-
SOUTH CENTRAL WISCONSIN

CITY           SKY/WX    TMP DP  RH WIND       PRES   REMARKS
REEDSBURG      PTCLDY    49  49  99 CALM      30.01S
BARABOO/DELLS  PTCLDY    49  47  93 CALM      30.02R
LONE ROCK      FOG       51  49  92 CALM      30.02S VSB<1/4
MINERAL POINT  MOCLDY    55  50  82 CALM      30.01R
MADISON        MOCLDY    49  47  93 VRB3      30.01R
MIDDLETON      PTCLDY    50  49  98 CALM      30.02R
WATERTOWN      MOCLDY    51  51 100 CALM      30.00S
MONROE         PTCLDY    52  50  93 N6        29.99S
JANESVILLE     CLEAR     54  52  94 CALM      29.98S
$$

WIZ051-052-058>065-066-070>072-031200-
SOUTHEAST WISCONSIN

CITY           SKY/WX    TMP DP  RH WIND       PRES   REMARKS
MILWAUKEE      PTCLDY    54  47  77 CALM      30.00S
WAUKESHA       CLEAR     48  45  87 CALM      30.01R
MILWAUKEE/TIMM PTCLDY    52  45  76 CALM      30.01S
RACINE         PTCLDY    53  49  86 N3        30.01R
BURLINGTON     MOCLDY    47  46  97 CALM      29.99S
KENOSHA        MOCLDY    51  48  89 CALM      29.99S
FOND DU LAC    PTCLDY    50  48  93 CALM      30.01S
SHEBOYGAN      PTCLDY    50  47  89 CALM      30.00S
WEST BEND      PTCLDY    46  45  93 CALM      30.01R
JUNEAU         PTCLDY    49  47  94 CALM      30.02S
$$

LSZ147-162-031200-
LAKE SUPERIOR

STATION/POSITION TIME  TEMP    WIND        PRES    WAVE
                       AIR SEA DIR/SP/G            HT/PER
                 (UTC) (F)     (DEG/KT/KT) (MB)    (FT/S)
W MID LAKE BUOY  1050   47 38  220/ 14/ 16 1011.6R   1/ 3
DEVILS ISLAND    1100   63     250/  5/  5 1012.6R
SAXON HARBOR     1000   62     200/  4/  7 1012.9S
$$

LMZ867-665-643>646-031200-
LAKE MICHIGAN

STATION/POSITION TIME  TEMP    WIND        PRES    WAVE
                       AIR SEA DIR/SP/G            HT/PER
                 (UTC) (F)     (DEG/KT/KT) (MB)    (FT/S)
CHAMBERS ISLAND  1000   60     220/  3/  5 1015.2S
S GREEN BAY BUOY 1000   65 68  230/ 10/ 12 1016.7
N MID LAKE BUOY  1050   53 45  200/  8/  8 1015.0F   0
NORTHPORT PIER   1000   58     230/  1/  4 1015.2F
SISTER BAY       1014   60        CALM       N/A
ALGOMA LAKESHORE 1010          280/  2/  5   N/A
KEWAUNEE LAKESHO 1100   53     310/  4/  6 1014.9F
SHEBOYGAN LAKESH 1100   57      CALM  /  1 1016.1F
PORT WASHINGTON  1040   53     280/  3/  4 1016.6S
ATWATER BUOY     1100   58     330/  4/  6 1017.0S
MILWAUKEE LAKESH 1100   57     340/  4/  4   N/A
KENOSHA   LAKESH 1100   58     350/  4/  5 1015.6R
$$

TC  - TEMPERATURE IN CELSIUS
VSB - VISIBILITY IN STATUTE MILES
WCI - WIND CHILL INDEX
HX  - HEAT INDEX




USA.gov is the U.S. government's official web portal to all federal, state and local government web resources and services.